Regional Weather Roundup
Issued by NWS

Home | Current Version | Previous Version | Text Only | Print | Product List | Glossary On
Versions: 1 2 3 4 5 6 7 8 9 10 11 12 13 14 15 16 17 18 19 20 21 22 23 24 25 26 27 28 29 30 31 32 33 34 35 36 37 38 39 40 41 42 43 44 45 46 47 48 49 50
000
ASUS43 KBIS 290031
RWRND
NORTH DAKOTA REGIONAL WEATHER ROUNDUP
NATIONAL WEATHER SERVICE EASTERN NORTH DAKOTA/GRAND FORKS ND
700 PM CDT WED JUN 28 2017

  NOTE: "FAIR" INDICATES FEW OR NO CLOUDS BELOW 12,000 FEET WITH NO
  SIGNIFICANT WEATHER AND/OR OBSTRUCTIONS TO VISIBILITY.

NDZ001>003-009>011-017-290100-
...NORTHWEST NORTH DAKOTA...

CITY           SKY/WX    TMP DP  RH WIND       PRES   REMARKS
WILLISTON      FAIR      70  53  54 CALM      29.73F
6HR MIN TEMP:  67; 6HR MAX TEMP:  85; 6HR PCP: TRACE;

MINOT          FAIR      79  45  29 NW9       29.69R
MINOT AFB      FAIR      81  46  29 N12       29.68R
6HR MIN TEMP:  74; 6HR MAX TEMP:  81;

$$

NDZ018>021-031>035-040>046-290100-
...SOUTHWEST NORTH DAKOTA...

CITY           SKY/WX    TMP DP  RH WIND       PRES   REMARKS
BISMARCK       FAIR      81  47  30 N10       29.69R
DICKINSON      FAIR      78  34  20 NE7       29.73R
GARRISON         N/A     79  43  27 VRB7      29.70R
HETTINGER      FAIR      80  31  16 NE8       29.74S
$$

NDZ004>008-012>016-024-026-027-054-290100-
...NORTHEAST NORTH DAKOTA...

CITY           SKY/WX    TMP DP  RH WIND       PRES   REMARKS
GRAND FORKS    PTSUNNY   69  64  84 N10       29.61S
GRAND FORKS AF FAIR      67  63  85 N6        29.63R
DEVILS LAKE    FAIR      75  54  47 N12       29.66R
$$

NDZ022-023-025-028>030-036>039-047>053-290100-
...SOUTHEAST NORTH DAKOTA...

CITY           SKY/WX    TMP DP  RH WIND       PRES   REMARKS
JAMESTOWN      FAIR      77  51  40 N16       29.65R
FARGO          CLOUDY    70  63  78 N15       29.60R
WAHPETON       FAIR      70  59  68 NW15G23   29.61R
$$



USA.gov is the U.S. government's official web portal to all federal, state and local government web resources and services.